Terminal Aerodrome Forecast
Issued by NWS

Home | Current Version | Previous Version | Text Only | Print | Product List | Glossary Off
Versions: 1 2 3 4 5 6 7 8 9 10 11 12

000
FTUS45 KGGW 311720
TAFSDY
TAF
KSDY 311720Z 3118/0118 15014KT P6SM FEW150
     FM010330 15008KT P6SM FEW200 WS020/17040KT
     FM011500 16010KT P6SM FEW250=

USA.gov is the U.S. government's official web portal to all federal, state and local government web resources and services.